METEOR 2-14

Satellite information

Favourite Embed

Satellite Type and Status

PAYLOADIN ORBIT

Key statistics

Satellite METEOR 2-14 at a glance.

Uptime

14231

Days in orbit

Revolutions

≈ 13.9

Per day

Orbit

LEO

Low Earth Orbit

Inclination

82.5

Latest

Satellite identification and parameters

Extended collection of information and parameters for METEOR 2-14.

Object identification

Identified? True

Debris? False

Object name: METEOR 2-14

International designator: 1986-039A

Object number (NORAD): 16735

Object ID (CCSDS): 16735

Country: COMMONWEALTH OF INDEPENDENT STATES (CIS)

Current information (Y/N): Y

RCS size: LARGE

Orbital parameters

Period: 103.933 minutes

Inclination: 82.5366 deg

SMA: 7322.546 km

Apoapsis: 954.315 km

Periapsis: 934.507 km

RAAN: 243.2483 deg

Eccentricy: 0.0013525

Argument of periapsis: 248.0966 deg

Mean anomaly: 122.9426 deg

Mean motion: 13.85509744 rev/day

Mean motion (dot): 0.00000081 rev/day2

B* drag term: 0.000058303 1/REarth

Two-line elements (TLE)

Creation date: May 12, 2025, 7:41 p.m.

Reference frame: TEME

Reference center: EARTH

Epoch: May 12, 2025, 1:34 p.m. UTC

TLE line 0: 0 METEOR 2-14

TLE line 1: 1 16735U 86039A 25132.56595214 .00000081 00000-0 58303-4 0 9990

TLE line 2: 2 16735 82.5366 243.2483 0013525 248.0966 122.9426 13.85509744969232

Live tracking on map

Real-time ground track for satellite METEOR 2-14.

In-orbit conjunctions

A list of the most updated potential collisions computed for object METEOR 2-14.

Target Orbit TCA Probability of collision Miss distance Type
CZ-4 DEB SSO 2025-03-03 17:53:16 0.0001590869 364.0 (m) DEBRIS
COSMOS 1275 DEB LEO 2024-06-15 18:04:18 0.0004792937 67.0 (m) DEBRIS

Associated space launch

Second generation soviet meteorological satellite

METEOR 2-14 was lifted into orbit during the mission ‘Tsiklon-3 | Meteor-2 14’, on board a Tsiklon-3 space rocket.

The launch took place on May 27, 1986, 9:30 a.m. from 32/1.

For more information about the launch, click the button.

Launch to space Tsiklon-3 | Meteor-2 14
Tsiklon-3 | Meteor-2 14

Agency: N/A

Status: Launch Successful

Launch date: May 27, 1986, 9:30 a.m. UTC

Rocket: Tsiklon-3

Launch pad: 32/1

Location: Plesetsk Cosmodrome, Russian Federation

...

Latest news about this satellite

There are no fresh news available about this satellite. Check back as we update our databases every day.


Newsletter sign-up

Weekly statistics, charts and insights to help you stay on top of the space industry.